Weather History for Louisville Bowman, KY

Change the Weather History Date:

Thursday, April 19, 2012

  Actual Average Record
Temperature  
Mean Temperature 62 °F 58 °F  
Max Temperature 78 °F 68 °F 86 °F (1958)
Min Temperature 46 °F 48 °F 27 °F (1983)
Degree Days  
Heating Degree Days 3 8  
Month to date heating degree days 120 201  
Since 1 July heating degree days 3116 4124  
Cooling Degree Days 0 1  
Month to date cooling degree days 23 19  
Year to date cooling degree days 93 23  
Growing Degree Days 12 (Base 50)    
Moisture  
Dew Point 44 °F    
Average Humidity 58    
Maximum Humidity 86    
Minimum Humidity 29    
Precipitation  
Precipitation 0.00 in 0.14 in 1.22 in (2009)
Month to date precipitation 2.20 2.32  
Year to date precipitation 12.68 13.04  
Sea Level Pressure  
Sea Level Pressure 30.01 in    
Wind  
Wind Speed 3 mph (SE)    
Max Wind Speed 9 mph    
Max Gust Speed 16 mph    
Visibility 10 miles    
Events      
T = Trace of Precipitation, MM = Missing Value Source: NWS Daily Summary

Daily Weather History Graph

Daily Weather History Graph

Search for Another Location

Airport:

Trip Planner

Search our weather history database for the weather conditions in past years. The results will help you decide how hot, cold, wet, or windy it might be!

Date:

Astronomy

Apr. 19, 2012 Rise Set
Actual Time 7:00 AM EDT 8:23 PM EDT
Civil Twilight 6:33 AM EDT 8:50 PM EDT
Nautical Twilight 6:00 AM EDT 9:23 PM EDT
Astronomical Twilight 5:25 AM EDT 9:58 PM EDT
Moon 5:53 AM EDT (4/19) 7:10 PM EDT (4/19)
Length of Visible Light 14h 17m
Length of Day
13h 22m
Waning Crescent, 2% of the Moon is Illuminated
Apr 19
Waning Crescent
Apr 21
New
Apr 29
First Quarter
May 5
Full
May 12
Last Quarter

Hourly Weather History & Observations

Time (EDT) Temp. Dew Point Humidity Pressure Visibility Wind Dir Wind Speed Gust Speed Precip Events Conditions
12:53 AM 52.0 °F 43.0 °F 71% 30.07 in 10.0 mi Calm Calm - N/A   Clear
1:53 AM 52.0 °F 43.0 °F 71% 30.07 in 10.0 mi Calm Calm - N/A   Clear
2:53 AM 46.9 °F 42.1 °F 83% 30.06 in 10.0 mi Calm Calm - N/A   Clear
3:53 AM 48.0 °F 43.0 °F 83% 30.06 in 10.0 mi Calm Calm - N/A   Clear
4:53 AM 50.0 °F 43.0 °F 77% 30.06 in 10.0 mi Calm Calm - N/A   Clear
5:53 AM 48.0 °F 43.0 °F 83% 30.06 in 10.0 mi Calm Calm - N/A   Clear
6:53 AM 46.9 °F 42.1 °F 83% 30.07 in 10.0 mi Calm Calm - N/A   Clear
7:53 AM 48.9 °F 44.1 °F 83% 30.09 in 10.0 mi NW 3.5 mph - N/A   Clear
8:53 AM 55.0 °F 45.0 °F 69% 30.10 in 10.0 mi Calm Calm - N/A   Clear
9:53 AM 61.0 °F 45.0 °F 56% 30.08 in 10.0 mi Calm Calm - N/A   Clear
10:53 AM 66.0 °F 44.1 °F 45% 30.08 in 10.0 mi Calm Calm - N/A   Clear
11:53 AM 71.1 °F 46.0 °F 41% 30.07 in 10.0 mi Calm Calm - N/A   Clear
12:53 PM 72.0 °F 44.1 °F 37% 30.06 in 10.0 mi SSE 5.8 mph - N/A   Clear
1:53 PM 73.9 °F 41.0 °F 30% 30.03 in 10.0 mi East 4.6 mph - N/A   Clear
2:53 PM 75.9 °F 42.1 °F 30% 30.00 in 10.0 mi Variable 3.5 mph - N/A   Clear
3:53 PM 75.9 °F 41.0 °F 29% 29.97 in 10.0 mi Calm Calm - N/A   Clear
4:53 PM 77.0 °F 44.1 °F 31% 29.95 in 10.0 mi Variable 5.8 mph - N/A   Clear
5:53 PM 77.0 °F 42.1 °F 29% 29.93 in 10.0 mi SE 8.1 mph - N/A   Clear
6:53 PM 75.9 °F 44.1 °F 32% 29.92 in 10.0 mi South 9.2 mph - N/A   Clear
7:53 PM 73.9 °F 45.0 °F 35% 29.91 in 10.0 mi SSE 4.6 mph - N/A   Clear
8:53 PM 71.1 °F 46.0 °F 41% 29.90 in 10.0 mi SE 3.5 mph - N/A   Clear
9:53 PM 69.1 °F 45.0 °F 42% 29.91 in 10.0 mi ESE 3.5 mph - N/A   Clear
10:53 PM 66.0 °F 46.0 °F 48% 29.90 in 10.0 mi ESE 3.5 mph - N/A   Clear
11:53 PM 64.9 °F 46.0 °F 50% 29.88 in 10.0 mi SE 4.6 mph - N/A   Clear